Simultaneous Nadir Overpasses (SNOs) Predictions

Prediction of SNOs between NOAA-19 and NPP Satellite Orbit:

Table of predicted SNOs for the next 14.0 days since TLE Epoch: 7/22/2016
Index Date (NOAA-19) Time (NOAA-19) Lat,Lon (NOAA-19) SZA (NOAA-19 ) Date (NPP) Time (NPP) Lat,Lon (NPP) SZA (NPP ) Distance(km) Time Diff (sec)
1 07/30/2016 09:34:06 80.98, -16.64 66.59 07/30/2016 09:35:08 80.99, -16.47 66.54 3.06 62
2 07/30/2016 10:25:06 -80.98, 150.83 113.43 07/30/2016 10:25:53 -80.98, 150.92 113.47 1.63 47
3 07/30/2016 11:16:07 80.98, -41.77 66.56 07/30/2016 11:16:38 80.99, -41.89 66.56 2.10 31
4 07/30/2016 12:07:08 -80.98, 125.33 113.42 07/30/2016 12:07:23 -80.98, 125.50 113.45 3.01 15
5 07/30/2016 12:58:09 80.98, -67.28 66.58 07/30/2016 12:58:08 80.99, -67.32 66.58 0.79 1
6 07/30/2016 13:49:09 -80.99, 100.20 113.45 07/30/2016 13:48:53 -80.99, 100.08 113.42 2.13 16
7 07/30/2016 14:40:11 80.98, -92.79 66.59 07/30/2016 14:39:38 80.99, -92.74 66.61 1.24 33
8 07/30/2016 15:31:11 -80.99, 74.70 113.43 07/30/2016 15:30:23 -80.99, 74.66 113.40 0.74 48




NCC Satellite Simultaneous Nadir Overpasses (SNOs) Prediction Service
